Погода в Пемутеране

Индонезия     8°08′28″S   114°36′51″E
темп.,
°C
ветер,
м/с
пор.,
м/с
влажн.,
%
обл.,
%
осадки,
мм/ч
давл.,
гПа
погр.,
м
2 марта, вт
вт223:00+24ссв358812 0.0 1011193
02:00+25ссв248736 0.0 1010185
05:00+24ссв249196 0.0 1009177
08:00+26ссв358596 0.0 1010344
11:00+29ссв466828 0.2 1011755
14:00+28ссв367549 1.8 1009356
17:00+26св2285100 5.0 100878
20:00+25всв018486 6.8 101035
3 марта, ср
ср323:00+24св118842 0.6 101139
02:00+24в018842 0.6 101041
05:00+24с118681 0.0 100953
08:00+26ссв118163 0.0 101090
11:00+30сз11572 0.0 1011863
14:00+32с33561 0.1 10081095
17:00+29св35772 1.0 1008554
20:00+25ссв238731 3.4 101094
4 марта, чт
чт423:00+24ссв138759 1.1 1012109
02:00+24ссв128868 1.1 101077
05:00+24ссв128857 0.0 101093
08:00+25с018579 0.1 1012117
11:00+30юз1162100 0.0 1011691
14:00+29юз2364100 1.2 1009637
17:00+27ю3781100 2.8 1008563
20:00+25ююз3688100 3.0 1011210
5 марта, пт
пт523:00+25ююз2487100 0.1 1012174
02:00+24юв1289100 0.1 1010101
05:00+24юв2288100 0.0 1009139
08:00+25ююв2384100 0.3 1011218
11:00+29ю366656 0.0 1011675
14:00+28ю477865 2.8 1009622
17:00+26ю4785100 3.6 1008490
20:00+24ю3690100 5.2 1010221
6 марта, сб
сб623:00+24ююв1291100 0.1 101195
02:00+24юв1190100 0.1 100966
05:00+23юв1190100 0.0 100957
08:00+25ююв0186100 0.0 101181
11:00+30ссз126090 0.0 1010886
14:00+31с435968 0.6 10081227
17:00+27св358537 5.9 1008585
20:00+25всв228968 13.2 101094